Location: Unspecified
(0.0000°N, 0.0000°E)
Time: 22:04:28
(UTC+00:00)

N. Korean satellite - Visible Passes

Search period start: 22 June 2017 00:00
Search period end: 02 July 2017 00:00
Orbit: 461 x 518 km, 97.2° (Epoch: 21 June)

Date Brightness Start Highest point End Pass type
(mag) Time Alt. Az. Time Alt. Az. Time Alt. Az.
22 Jun 6.9 18:42:43 10° S 18:46:29 73° W 18:50:12 10° NNW visible
24 Jun 9.7 19:32:35 10° SW 19:34:05 12° WSW 19:35:34 10° WNW visible
25 Jun 8.8 19:08:03 10° SSW 19:11:16 27° WSW 19:14:27 10° NW visible
26 Jun 7.1 18:44:42 10° S 18:48:26 66° WSW 18:52:07 10° NNW visible
27 Jun 7.0 18:21:58 10° SSE 18:25:36 48° E 18:29:09 10° N visible
28 Jun 9.8 19:34:58 10° WSW 19:36:00 11° WSW 19:37:01 10° W visible
29 Jun 8.9 19:10:05 10° SSW 19:13:11 25° WSW 19:16:14 10° NW visible
30 Jun 7.2 18:46:39 10° S 18:50:21 60° W 18:53:58 10° NNW visible
